Regional Weather Roundup
Issued by NWS

Home | Current Version | Previous Version | Graphics & Text | Print | Product List | Glossary On
Versions: 1 2 3 4 5 6 7 8 9 10 11 12 13 14 15 16 17 18 19 20 21 22 23 24 25 26 27 28 29 30 31 32 33 34 35 36 37 38 39 40 41 42 43 44 45 46 47 48 49 50
331
ASUS45 KCYS 241210
RWRWY

WYOMING REGIONAL WEATHER ROUNDUP
NATIONAL WEATHER SERVICE CHEYENNE WY
600 AM MDT SUN SEP 24 2017

NOTE:  "FAIR" INDICATES FEW OR NO CLOUDS BELOW 12,000 FEET
WITH NO SIGNIFICANT WEATHER AND/OR OBSTRUCTIONS TO VISIBILITY.

WYZ001-241300-
YELLOWSTONE NATIONAL PARK

CITY           SKY/WX    TMP DP  RH WIND       PRES   REMARKS
LK YELLOWSTONE NOT AVBL
W YELLOWSTONE  NOT AVBL

$$
WYZ002>013-054>058-071-098>099-241300-
NORTHERN WYOMING

CITY           SKY/WX    TMP DP  RH WIND       PRES   REMARKS
JACKSON        FAIR      35  31  85 N17       29.96S WCI  25
CODY           FAIR      35  34  96 NE10      30.07F WCI  27
GREYBULL       CLOUDY    44  41  89 CALM      30.04S
6HR MIN TEMP:  43; 6HR MAX TEMP:  44; 6HR PCP: TRACE;

WORLAND        CLOUDY    42  40  92 NW5       30.04S
6HR MIN TEMP:  41; 6HR MAX TEMP:  42; 6HR PCP:  0.04;

SHERIDAN       CLOUDY    39  38  96 NE3       30.09R
6HR MIN TEMP:  39; 6HR MAX TEMP:  41; 6HR PCP:  0.07;

BUFFALO        FOG       37  34  89 N10       30.07S VSB 1/4 WCI  30
6HR MIN TEMP:  37; 6HR MAX TEMP:  38; 6HR PCP: TRACE;

GILLETTE       CLOUDY    38  38 100 NW10      30.05R WCI  31
6HR MIN TEMP:  38; 6HR MAX TEMP:  40; 6HR PCP:  0.03;

HULETT         LGT RAIN  41  39  93 N8        30.05R VSB 3/4
NEWCASTLE      CLOUDY    43  37  81 NW8       30.00R

$$
WYZ014>020-022>026-101>103-241300-
CENTRAL WYOMING

CITY           SKY/WX    TMP DP  RH WIND       PRES   REMARKS
BIG PINEY      CLOUDY    36  35  96 CALM      29.93F
6HR MIN TEMP:  34; 6HR MAX TEMP:  40; 6HR PCP:  0.01;

PINEDALE       CLOUDY    32  32 100 NW8       29.95S WCI  25
DUBOIS         CLOUDY    32  32 100 SE10      30.01F WCI  24
LANDER         LGT RAIN  36  35  96 W6        30.03S FOG     WCI  31
6HR MIN TEMP:  36; 6HR MAX TEMP:  38; 6HR PCP:  0.05;

RIVERTON       CLOUDY    38  34  85 N8        30.04R WCI  32
6HR MIN TEMP:  37; 6HR MAX TEMP:  39; 6HR PCP: TRACE;

CASPER         CLOUDY    37  35  92 NE9       30.04R WCI  30
6HR MIN TEMP:  37; 6HR MAX TEMP:  38;

DOUGLAS        CLOUDY    39  37  92 N6        30.05R WCI  35
6HR MIN TEMP:  39; 6HR MAX TEMP:  42;


$$
WYZ021-027>030-104>119-241300-
SOUTHERN WYOMING

CITY           SKY/WX    TMP DP  RH WIND       PRES   REMARKS
EVANSTON       CLOUDY    34  34 100 E12       29.90S WCI  25
6HR MIN TEMP:  33; 6HR MAX TEMP:  35;

KEMMERER       LGT SNOW  32  32 100 E26G33    29.92F VSB 1   WCI  18
FORT BRIDGER   FOG       34  34 100 NE9       29.94F VSB 1/2 WCI  26
ROCK SPRINGS   CLOUDY    33  31  92 NE24G31   29.91S WCI  20
6HR MIN TEMP:  33; 6HR MAX TEMP:  36; 6HR PCP: TRACE;

DIXON          FAIR      34  32  93 E6        29.90F WCI  29
RAWLINS        CLOUDY    39  34  82 NE16      29.95S WCI  30
6HR MIN TEMP:  39; 6HR MAX TEMP:  41;

SARATOGA       FOG       36  36 100 E8        29.95S VSB 1   WCI  29
LARAMIE        CLOUDY    39  36  89 SE13      29.96S WCI  31
6HR MIN TEMP:  38; 6HR MAX TEMP:  40;

CHEYENNE       LGT RAIN  42  40  92 NE8       29.98S FOG
6HR MIN TEMP:  42; 6HR MAX TEMP:  44; 6HR PCP: TRACE;

TORRINGTON     CLOUDY    44  42  93 N7        29.99R
6HR MIN TEMP:  44; 6HR MAX TEMP:  45; 6HR PCP: TRACE;

PINE BLUFFS    CLOUDY    41  41 100 MISG      30.00S FOG

$$




USA.gov is the U.S. government's official web portal to all federal, state and local government web resources and services.